This is the latest recevied weather packets stored in our database for station/object DL1MMS-10. If no packets are shown the sender has not sent any weather packets the latest 10 day(s).
| Time | Temp. | Humidity | Pressure | Rain* | Wind** | Luminosity | Snow |
|---|---|---|---|---|---|---|---|
| 1777480500 | 23.89° C | 22% | 1020.5 hPa | 0 mm | - | - | - |
| 1777480200 | 25.56° C | 21% | 1020.4 hPa | 0 mm | - | - | - |
| 1777479900 | 26.67° C | 21% | 1020.6 hPa | 0 mm | - | - | - |
| 1777479600 | 26.67° C | 21% | 1020.6 hPa | 0 mm | - | - | - |
| 1777479299 | 27.22° C | 20% | 1020.6 hPa | 0 mm | - | - | - |
| 1777478999 | 27.78° C | 20% | 1020.5 hPa | 0 mm | - | - | - |
| 1777478699 | 28.33° C | 20% | 1020.3 hPa | 0 mm | - | - | - |
| 1777478398 | 27.78° C | 21% | 1020.3 hPa | 0 mm | - | - | - |
| 1777478098 | 28.33° C | 20% | 1020.3 hPa | 0 mm | - | - | - |
| 1777477798 | 28.89° C | 20% | 1020.4 hPa | 0 mm | - | - | - |
| 1777477498 | 30° C | 20% | 1020.3 hPa | 0 mm | - | - | - |
| 1777477197 | 30° C | 20% | 1020.3 hPa | 0 mm | - | - | - |
| 1777476897 | 29.44° C | 20% | 1020.3 hPa | 0 mm | - | - | - |
| 1777476597 | 29.44° C | 20% | 1020.3 hPa | 0 mm | - | - | - |
| 1777476296 | 29.44° C | 20% | 1020.3 hPa | 0 mm | - | - | - |
| 1777475996 | 29.44° C | 21% | 1020.2 hPa | 0 mm | - | - | - |
| 1777475696 | 29.44° C | 20% | 1020.1 hPa | 0 mm | - | - | - |
| 1777475396 | 30° C | 20% | 1020.1 hPa | 0 mm | - | - | - |
| 1777475095 | 30° C | 20% | 1020.1 hPa | 0 mm | - | - | - |
| 1777474795 | 30° C | 21% | 1020.2 hPa | 0 mm | - | - | - |
| 1777474495 | 30° C | 20% | 1020.2 hPa | 0 mm | - | - | - |
| 1777474194 | 29.44° C | 20% | 1020.3 hPa | 0 mm | - | - | - |
| 1777473894 | 30° C | 21% | 1020.2 hPa | 0 mm | - | - | - |
| 1777473594 | 30° C | 21% | 1020.2 hPa | 0 mm | - | - | - |
| 1777473294 | 29.44° C | 21% | 1020.2 hPa | 0 mm | - | - | - |
* Rain latest hour (hover to see other rain measurements)
** Current wind speed in m/s (hover to see current wind gust speed)